GFSCGP_850_temp_366.txt.gz
Temp
23 25 25 28 32 35 35 35 35 36 36 35 35 34 34 33 33 33 32 31 30 30 29 28 28 27 27 26 25 24 23 23 22 22 21 21 20 20 21 21 21 22 21 21
24 24 30 30 35 35 34 33 35 35 36 36 36 35 35 35 34 34 33 32 31 30 30 29 28 28 27 26 25 24 24 23 22 22 22 21 21 21 22 22 22 22 22 21
22 26 30 34 34 34 32 31 35 35 36 37 35 34 34 35 35 34 34 33 32 32 31 30 29 28 28 27 26 25 25 24 23 23 22 22 22 22 22 23 22 22 22 22
20 26 31 36 33 34 30 34 37 37 35 33 36 32 32 34 34 34 34 34 34 33 32 31 30 29 28 28 27 26 26 25 25 24 22 22 22 22 22 22 22 22 22 21
26 31 34 36 36 36 35 37 37 33 31 24 31 30 32 34 34 34 35 34 34 34 33 33 32 31 30 29 29 28 27 26 26 24 23 22 22 22 22 22 23 22 22 21
34 35 35 36 37 37 37 37 36 36 31 29 31 30 31 33 34 34 36 35 35 35 34 33 33 32 31 31 30 29 28 27 26 25 24 23 22 22 22 22 22 22 22 21
29 31 36 37 36 37 37 36 34 33 32 33 35 34 33 34 35 35 36 36 35 35 35 34 33 33 32 31 31 30 29 28 27 26 25 24 24 24 24 23 23 22 22 21
24 31 36 37 36 35 36 37 34 31 34 35 37 34 33 35 35 35 36 37 36 36 36 35 34 33 32 32 31 30 29 28 27 26 26 26 25 25 25 24 23 22 22 21
26 31 37 37 37 38 36 36 37 36 37 35 34 35 35 36 36 37 36 37 36 36 36 36 36 34 33 32 31 29 28 27 27 27 26 25 25 25 24 22 22 22 21 21
33 33 37 37 37 38 37 38 36 37 33 33 34 33 32 35 36 36 36 36 36 36 36 35 34 27 32 32 30 28 27 26 25 25 25 25 25 24 24 23 23 22 22 21
27 27 35 37 37 36 36 36 37 37 36 34 34 33 36 36 36 36 36 36 35 34 33 33 33 33 33 32 29 27 26 26 24 23 24 24 24 24 23 23 22 22 20 19
37 35 34 35 38 37 37 36 36 35 34 36 35 35 38 37 37 36 36 35 34 33 33 32 32 32 31 30 28 26 25 24 23 23 24 24 23 23 23 22 20 20 20 20
36 36 35 35 36 37 36 36 36 36 36 34 34 35 36 37 37 36 35 34 33 33 33 32 31 31 31 29 27 25 24 23 23 22 22 22 22 22 22 20 19 19 19 18
34 36 35 34 31 36 35 36 36 36 34 34 35 35 36 34 34 34 33 33 32 32 32 32 30 30 29 27 26 25 25 24 23 23 22 21 21 21 21 20 20 20 18 18
36 34 35 35 36 36 35 36 36 35 35 34 34 34 32 32 32 32 32 32 32 31 31 30 30 30 28 27 26 25 25 24 24 24 23 22 22 21 21 21 21 20 19 19
37 34 35 34 35 35 35 35 35 36 35 35 35 31 33 31 31 31 31 31 29 29 29 29 29 29 29 27 26 25 25 24 24 24 23 23 22 21 21 21 21 20 18 18
36 35 33 32 34 34 33 35 35 35 35 35 33 31 31 30 30 30 30 29 28 28 28 28 28 28 28 28 23 23 23 25 23 24 23 23 22 22 21 20 20 19 18 17
35 34 34 33 33 31 35 36 35 34 34 34 33 31 30 30 29 29 28 28 28 27 27 27 27 27 27 26 24 24 24 24 24 24 23 23 22 22 21 20 19 19 18 17
36 34 33 31 31 33 34 35 33 32 32 32 30 30 29 29 28 29 27 27 27 27 26 26 26 25 25 25 24 23 23 23 23 23 23 22 22 21 20 20 19 19 17 17
36 35 33 32 30 30 32 33 32 33 30 30 29 28 28 27 27 27 26 27 27 26 25 24 24 24 24 22 22 22 22 21 21 21 20 20 21 20 20 19 19 17 14 16
31 32 32 32 31 32 31 31 31 28 26 27 27 27 26 26 26 26 26 25 24 24 23 23 23 23 22 22 21 21 20 20 20 19 19 19 19 19 19 19 19 18 16 16
32 31 31 32 31 29 29 31 27 27 26 26 26 26 26 26 25 25 25 24 23 23 22 22 22 21 21 21 20 19 19 19 18 18 18 18 18 17 17 18 17 17 16 15
31 32 31 30 30 31 29 28 26 25 25 25 25 25 25 25 25 24 23 23 22 21 21 21 20 20 19 19 19 18 18 18 17 17 17 17 16 16 16 16 17 17 16 16
32 30 31 30 31 30 28 27 25 24 24 24 25 24 24 24 24 23 22 21 21 20 20 20 19 19 18 18 17 17 17 17 16 16 16 15 15 16 15 15 16 16 16 16
31 31 30 29 29 26 27 25 24 23 23 24 23 23 23 23 23 22 22 21 20 20 19 19 18 18 18 18 17 17 17 17 16 15 16 15 15 15 15 16 15 15 16 16
30 28 28 27 26 24 24 24 24 23 23 22 23 22 22 22 22 22 21 20 20 20 19 18 18 18 18 18 18 17 16 16 15 15 15 15 15 14 15 15 15 16 16 16

GFSCGP_850_temp_369.txt.gz
Temp
21 21 21 24 29 30 31 29 25 30 33 30 28 28 28 29 28 30 29 29 29 29 29 28 27 27 26 25 25 24 24 23 23 23 22 22 23 22 21 21 21 21 21 21
22 22 26 29 30 30 31 31 31 34 34 33 28 26 29 29 31 31 29 30 30 29 29 28 28 27 27 26 26 25 24 23 23 23 23 23 22 22 22 22 21 21 21 21
21 25 28 29 29 31 32 31 31 32 35 32 30 27 30 31 32 32 31 30 30 30 29 29 28 28 27 27 26 26 25 24 24 23 23 22 22 21 21 21 22 22 22 22
23 27 28 30 30 32 31 33 33 35 30 29 30 27 30 31 31 31 33 31 31 30 30 29 28 28 28 27 27 26 26 26 25 24 23 23 23 22 22 22 22 22 22 22
27 28 31 32 31 34 33 34 33 33 29 27 26 23 27 31 30 30 31 32 32 32 31 30 29 29 28 28 28 27 27 27 26 26 25 24 23 23 22 22 22 22 22 22
29 32 32 32 35 36 36 34 32 28 26 24 26 26 27 28 30 30 32 34 34 33 32 32 31 30 29 29 28 28 28 28 27 27 26 25 24 23 22 22 22 22 22 22
29 30 32 34 33 34 35 31 28 26 26 26 27 27 27 29 32 33 31 34 34 34 33 33 32 30 30 29 29 29 28 28 28 27 26 25 25 23 22 22 22 22 22 22
24 27 32 35 35 34 33 31 27 29 29 27 29 28 30 32 34 35 35 35 35 35 34 33 29 30 29 29 28 28 29 29 28 27 27 26 25 24 24 24 24 24 24 24
25 27 31 36 36 35 33 30 33 31 30 24 29 31 32 33 32 33 35 35 35 33 32 32 31 32 31 29 30 29 29 29 28 27 26 26 25 25 25 25 24 23 23 23
27 27 30 35 35 35 35 33 29 26 29 28 28 30 28 30 30 33 35 33 34 33 32 31 30 30 29 29 29 29 28 30 28 27 25 26 26 25 24 24 23 23 22 22
26 26 29 31 33 32 31 29 30 28 27 26 28 25 30 31 31 32 31 33 33 33 32 32 31 30 29 30 28 28 28 28 27 26 26 25 25 24 24 23 23 23 23 23
28 26 24 29 34 36 35 34 30 25 28 27 26 27 31 34 32 31 31 32 32 32 32 32 31 31 30 30 27 26 27 27 26 26 26 25 25 24 24 24 23 23 22 22
29 27 28 29 30 31 34 35 35 31 27 29 26 28 32 30 29 30 30 31 31 31 30 30 30 30 29 29 28 27 27 26 25 25 24 23 23 23 23 23 23 22 21 21
33 30 29 28 29 31 32 32 33 32 27 28 28 26 27 26 27 28 30 29 29 29 29 29 29 28 29 28 27 26 25 24 24 24 23 23 23 23 23 23 22 21 21 20
32 30 31 32 33 33 33 33 32 31 31 30 28 25 26 26 26 28 29 28 28 28 28 28 28 28 27 27 25 24 23 21 20 19 22 23 23 23 22 22 21 21 20 20
31 28 30 33 31 32 32 32 32 32 32 27 27 26 26 29 29 27 27 27 27 27 27 27 27 27 25 25 24 25 23 23 23 22 18 20 22 23 23 22 22 21 20 19
32 28 27 29 31 31 29 31 32 31 30 28 25 26 26 25 26 26 27 27 27 27 27 26 24 24 23 23 22 23 22 22 21 19 18 20 22 23 22 21 21 20 20 18
31 29 26 26 28 28 29 31 32 29 29 28 26 26 26 26 27 26 26 26 27 26 25 25 24 23 22 22 22 22 21 20 20 19 20 22 21 20 20 20 20 19 19 19
30 28 27 26 27 28 29 30 30 28 25 26 25 25 26 26 27 26 26 26 24 24 23 23 23 22 21 21 21 21 21 21 21 20 20 20 19 19 20 20 20 19 19 19
24 23 24 20 19 18 24 29 31 30 22 26 25 24 25 26 20 20 24 24 23 23 22 22 22 22 22 21 21 21 20 20 20 19 19 19 19 19 19 18 18 18 18 17
21 19 19 19 21 23 27 28 30 26 22 25 25 25 25 22 24 24 24 23 22 22 22 22 21 21 21 21 20 19 19 18 18 18 18 18 17 17 17 17 16 17 16 17
25 22 24 22 25 25 29 27 24 22 25 24 25 25 25 25 25 24 23 22 22 22 21 21 21 20 20 20 19 19 18 18 18 17 17 17 17 16 16 16 16 16 16 16
26 27 24 26 25 25 25 24 24 24 24 24 24 24 24 23 23 23 22 21 21 21 21 20 20 20 20 19 18 18 18 18 17 16 16 16 16 16 16 15 15 15 15 15
29 30 24 24 23 24 24 24 23 23 23 24 24 23 23 22 22 22 22 21 21 21 20 20 20 19 19 18 18 18 18 18 17 17 16 16 16 15 15 15 15 15 15 15
27 27 26 22 22 23 23 24 24 23 23 23 23 22 22 22 22 22 21 21 20 20 20 20 19 18 18 18 18 18 17 14 16 16 15 15 15 15 15 15 15 15 15 15
26 24 22 20 23 23 23 23 23 23 23 22 22 22 22 21 21 21 21 20 20 20 19 18 18 18 18 18 18 17 16 16 16 15 15 15 14 14 15 15 16 16 16 16

GFSCGP_850_temp_375.txt.gz
Temp
22 21 21 24 24 26 26 25 24 25 27 27 26 27 25 25 25 25 25 26 26 26 27 26 26 26 26 25 25 24 24 24 23 23 22 21 22 21 20 20 21 21 20 20
22 23 23 26 26 25 25 25 24 26 27 27 25 26 26 24 25 26 26 26 27 27 27 27 26 26 26 26 25 25 25 24 24 23 23 23 23 23 23 23 23 22 21 21
23 26 26 25 26 26 25 25 26 25 28 27 26 26 26 26 27 27 27 27 28 28 28 27 27 26 26 26 26 26 25 25 24 24 24 23 23 23 23 23 23 23 22 21
23 25 26 26 26 27 24 27 28 28 25 25 26 24 25 26 25 26 27 27 28 28 28 28 27 27 27 27 26 26 26 26 25 25 25 25 24 24 24 24 23 23 22 22
27 26 27 27 29 28 28 31 28 28 24 25 26 24 24 25 26 25 26 29 28 29 29 28 28 28 28 28 27 27 27 26 26 26 25 25 25 25 25 24 23 23 22 21
26 28 27 27 30 29 31 29 25 22 22 23 24 25 24 24 26 26 27 28 29 29 29 29 29 28 28 28 28 27 27 27 27 26 26 25 25 25 25 24 24 23 22 22
26 27 27 28 29 29 28 25 23 25 24 24 23 24 25 27 26 27 27 29 30 30 29 29 29 29 28 28 28 28 27 27 27 27 27 26 26 25 25 25 24 23 23 22
25 26 29 30 30 30 28 25 23 26 23 24 25 26 27 27 28 29 31 31 31 30 30 30 30 30 29 29 29 28 28 28 28 27 27 27 27 25 25 25 25 24 23 22
24 25 28 28 30 29 29 27 25 21 22 23 23 25 28 28 26 27 27 29 29 30 32 32 31 31 30 30 29 29 29 29 28 28 27 27 26 25 23 20 20 20 22 22
26 24 27 28 30 31 31 27 27 22 25 27 23 26 25 24 25 25 25 27 29 30 30 30 30 29 29 29 29 28 27 27 26 25 25 24 22 21 19 21 19 20 18 20
25 24 26 27 29 29 28 28 22 21 21 22 23 23 24 22 24 23 23 26 27 28 28 29 29 30 29 29 29 28 27 27 27 26 25 25 23 19 18 21 20 18 17 18
25 23 25 27 28 29 29 29 23 23 26 18 20 23 24 21 23 24 24 26 27 28 28 28 28 28 28 28 29 29 29 28 26 23 23 22 20 19 21 23 22 20 20 19
25 24 24 28 27 29 29 29 22 19 20 22 22 22 25 23 22 24 24 25 25 26 26 27 27 27 28 28 28 27 26 23 22 22 20 20 20 20 21 22 21 19 18 20
25 22 25 25 28 27 30 29 27 24 23 21 21 23 25 23 22 23 24 24 24 25 25 25 25 25 25 25 24 24 22 21 22 22 21 21 21 21 21 20 19 19 20 20
25 25 25 25 25 28 29 28 28 29 25 27 23 22 23 23 22 23 23 23 23 22 23 23 23 22 22 21 21 22 21 21 22 21 21 21 20 19 18 18 18 20 20 20
22 25 25 28 27 29 26 25 24 24 22 22 21 23 23 23 23 23 23 23 22 22 22 22 22 22 22 21 21 20 20 20 20 20 20 20 19 19 19 18 18 18 19 18
24 24 23 27 25 27 25 23 24 23 22 22 23 23 22 22 22 23 23 22 22 21 21 21 21 21 21 21 21 21 20 20 19 19 19 19 19 18 18 18 18 18 18 17
21 20 19 23 23 24 23 24 23 22 22 21 21 22 22 22 22 23 22 22 21 21 21 21 20 20 20 20 20 19 19 19 18 18 18 18 18 17 17 17 17 17 17 17
20 19 19 22 20 23 26 25 25 24 23 23 22 23 23 23 22 21 21 22 22 21 21 21 21 20 20 19 19 19 18 18 18 17 17 17 17 16 16 16 16 16 16 16
21 19 22 19 24 24 24 25 25 24 22 22 22 22 23 22 19 18 21 21 21 21 20 20 20 20 20 19 19 18 18 18 17 17 17 17 16 16 16 16 16 16 15 15
20 18 20 18 22 22 20 23 25 25 22 23 23 23 22 19 21 21 21 21 21 21 20 20 20 19 19 19 18 18 18 17 17 17 17 16 16 15 16 15 15 15 15 15
23 21 20 17 21 24 22 24 25 21 22 23 23 23 22 21 21 21 21 21 20 20 19 19 19 19 18 18 18 17 17 16 16 16 15 15 15 16 15 15 15 15 15 15
23 21 21 19 19 20 20 22 23 23 23 22 22 22 21 22 21 21 20 19 19 19 18 18 18 18 18 17 17 16 15 15 15 15 15 15 15 15 15 14 14 14 14 14
23 21 17 18 20 20 22 22 23 23 22 22 22 22 22 21 20 20 19 19 18 18 18 18 17 17 17 16 15 14 14 14 13 13 14 14 14 15 15 14 14 14 14 14
21 19 16 17 19 21 22 23 23 22 22 22 21 21 20 20 19 19 19 18 18 17 17 17 16 16 15 15 14 13 13 13 13 13 14 14 14 14 14 14 14 14 15 14
19 17 17 16 20 20 21 22 22 22 21 21 21 20 19 19 19 18 18 17 17 17 16 16 15 14 14 14 13 13 13 13 13 12 12 12 13 13 13 13 14 15 15 15

GFSCGP_850_temp_381.txt.gz
Temp
22 25 24 27 27 27 27 27 27 27 29 29 29 29 29 26 25 25 25 24 24 24 24 23 24 24 24 24 24 24 24 23 23 23 22 21 21 21 21 21 21 20 20 20
25 25 27 27 27 27 26 27 28 28 28 28 28 29 29 27 27 26 26 25 25 25 24 24 25 24 24 25 25 24 24 24 24 23 23 22 22 22 21 21 21 21 20 20
25 27 26 27 27 27 27 27 27 29 28 28 28 29 29 29 27 26 26 26 26 26 26 26 27 26 26 26 26 25 25 25 25 24 23 23 22 22 22 22 22 22 22 22
26 27 27 28 28 28 28 28 28 28 28 30 28 30 29 30 29 28 27 27 26 26 26 27 28 28 27 27 27 26 26 26 26 25 24 24 24 23 24 24 24 24 23 23
28 27 27 28 28 28 29 29 28 28 28 28 28 30 32 27 30 30 30 29 28 27 27 27 29 29 29 28 28 27 27 26 26 26 25 25 24 25 25 25 25 24 24 23
26 26 27 29 29 29 29 29 28 28 30 30 27 30 32 31 31 32 32 30 30 28 28 30 29 29 29 29 29 28 27 27 26 26 26 25 25 25 24 24 24 24 24 23
27 28 28 28 29 29 29 30 30 30 30 30 27 28 32 30 30 30 31 31 30 28 28 28 28 27 28 28 28 28 28 27 27 26 26 26 26 25 25 24 24 24 24 24
27 29 28 29 30 31 30 32 31 29 30 30 26 29 31 28 27 27 27 26 26 28 27 26 27 27 27 27 27 26 26 26 26 26 25 25 25 24 24 24 24 23 23 22
27 28 29 30 31 31 29 30 29 29 25 29 29 29 29 29 29 26 27 26 25 24 24 24 25 27 27 26 26 25 25 24 24 23 24 23 23 23 23 22 22 22 21 21
27 28 29 30 30 29 31 28 31 29 28 29 29 28 31 30 28 26 26 25 23 23 22 22 25 25 25 25 24 24 24 23 22 22 22 22 22 22 21 20 20 19 19 19
27 28 29 28 30 32 29 30 27 29 28 31 30 31 27 27 26 26 24 23 23 22 21 21 23 25 25 25 25 24 23 22 22 22 22 22 22 22 21 20 19 19 19 19
27 28 29 31 29 29 30 30 31 32 28 26 28 31 26 25 24 24 23 22 22 22 22 24 25 25 24 23 23 22 22 22 22 21 21 21 21 20 19 19 19 19 20 20
24 26 29 31 31 29 30 28 28 29 29 28 31 31 25 24 24 23 23 22 22 24 25 25 24 24 23 22 22 22 22 22 22 22 21 20 20 19 19 18 19 19 19 19
26 27 29 30 30 29 30 29 28 30 31 29 31 28 25 25 25 24 23 22 22 23 23 23 23 22 22 22 22 22 22 21 21 21 20 20 19 19 19 18 18 18 18 18
26 28 27 28 28 28 28 28 29 30 29 32 30 29 27 25 25 24 23 22 22 21 22 22 22 22 21 21 21 21 20 20 20 20 19 19 19 18 18 18 17 17 17 17
24 25 24 27 28 29 28 27 27 27 26 26 26 27 26 24 23 23 22 22 22 21 21 21 21 21 21 20 20 19 19 19 19 18 18 18 18 18 17 17 17 16 16 15
26 28 25 27 25 28 29 27 27 26 25 27 28 28 24 24 24 23 22 22 22 21 20 21 20 20 20 19 19 19 18 18 17 17 17 17 17 17 17 17 16 16 16 16
26 26 25 28 26 28 27 25 25 27 25 25 25 24 25 24 23 22 21 22 21 20 20 20 20 19 19 19 19 18 18 17 17 17 16 16 16 16 16 16 16 15 15 15
26 26 25 27 28 26 26 26 26 28 27 25 25 24 22 21 22 21 21 21 20 20 20 20 20 19 19 18 18 17 18 17 17 16 15 15 14 14 14 15 15 15 15 15
25 25 28 24 27 27 27 26 25 27 28 24 24 24 23 22 24 25 20 20 20 20 20 20 19 19 18 18 18 17 17 16 15 15 14 14 14 14 14 14 14 15 14 15
26 25 27 25 28 27 25 24 24 27 27 23 23 23 22 24 23 21 20 20 20 20 19 19 18 18 17 17 17 16 16 15 15 14 14 14 13 13 13 13 13 14 14 14
27 27 26 24 27 28 22 25 27 24 21 22 22 22 22 21 20 20 21 20 19 19 18 18 18 17 17 16 16 15 14 14 14 14 14 14 13 11 12 12 12 13 13 13
26 25 27 25 26 21 20 21 22 21 22 21 22 22 22 21 20 20 20 19 19 18 18 17 17 17 16 15 14 14 13 13 13 14 14 13 12 11 12 11 11 12 12 11
23 20 24 22 22 22 21 20 21 22 23 23 23 22 21 20 21 20 20 19 18 17 17 17 16 16 15 14 13 12 12 13 13 13 12 11 11 10 10 11 11 11 11 11
24 22 22 21 21 21 21 21 22 23 23 22 21 21 21 20 20 19 18 18 17 17 16 16 15 14 13 13 12 12 12 12 12 12 11 9 9 10 11 11 11 11 11 10
22 24 26 28 23 24 23 21 22 22 21 21 21 20 20 19 19 18 18 17 16 16 16 15 14 13 12 11 11 11 11 11 11 11 10 8 8 9 11 11 12 12 10 11

GFSCGP_850_temp_384.txt.gz
Temp
26 28 30 32 32 32 33 32 32 33 33 32 33 33 32 30 30 30 30 28 27 27 27 27 26 25 25 24 23 22 22 23 23 21 20 20 20 20 20 20 20 19 19 19
28 29 30 32 31 31 32 32 33 32 33 33 33 33 33 32 32 31 31 30 29 28 28 27 27 26 25 25 24 23 24 23 24 23 22 21 21 21 21 21 20 20 21 21
28 30 30 31 31 31 33 33 33 33 32 33 33 33 33 33 32 32 31 31 30 30 29 29 28 27 26 26 25 24 26 25 25 24 21 21 23 21 21 21 21 22 23 23
29 31 30 31 31 32 34 33 33 33 33 34 33 32 33 34 34 33 32 31 31 31 30 29 29 28 27 27 26 25 27 26 26 25 24 23 22 22 22 22 22 21 22 24
30 31 30 31 32 32 32 33 33 34 34 34 34 35 34 34 33 35 35 33 33 32 32 31 30 30 29 28 27 26 28 27 27 26 26 25 24 22 22 22 22 21 22 23
30 31 31 33 32 32 32 33 33 34 35 34 33 34 35 34 35 35 36 35 34 33 32 31 31 30 29 29 28 27 27 28 27 27 27 26 26 25 23 23 22 22 21 21
31 31 33 32 32 32 32 34 33 33 34 34 34 34 35 34 34 34 35 34 34 32 33 32 30 29 29 28 27 26 25 27 27 27 26 26 25 25 24 24 21 22 22 22
30 31 33 33 33 34 32 35 33 32 34 34 33 33 34 33 32 32 31 31 30 31 31 30 29 28 27 26 25 24 24 23 24 24 24 24 23 22 20 21 20 20 21 21
28 25 33 33 34 34 33 32 35 35 35 34 35 34 34 33 32 31 31 30 29 28 27 26 25 25 24 23 23 22 24 24 24 23 23 23 22 22 22 22 21 19 19 19
31 30 33 33 33 32 34 35 34 35 32 32 34 34 35 33 32 31 30 29 27 27 26 25 24 24 24 23 22 21 23 23 22 22 22 22 22 22 22 22 21 19 18 18
32 32 32 32 33 34 32 34 35 36 35 34 34 35 34 33 32 30 29 27 26 26 25 24 23 23 22 22 21 21 22 22 23 22 22 22 22 21 21 21 21 20 19 18
31 31 22 33 34 33 35 36 36 35 33 35 34 34 32 31 31 30 28 26 26 25 25 24 23 22 22 21 21 20 20 20 21 21 20 19 18 18 18 17 18 19 19 19
30 31 31 32 32 33 34 35 36 37 36 34 34 33 31 29 29 28 27 26 25 25 24 23 23 22 22 21 21 21 21 20 20 20 19 18 18 18 18 18 18 17 17 17
28 30 30 30 33 34 32 33 34 36 35 35 35 31 30 30 29 28 27 26 26 25 25 24 23 22 21 21 21 20 20 19 19 18 19 18 18 17 17 16 16 16 16 16
29 28 27 33 33 32 33 34 34 34 35 35 34 35 32 30 30 29 27 26 26 25 25 24 23 22 21 21 20 20 19 18 18 18 17 17 16 16 16 16 16 16 15 15
28 29 28 32 32 32 32 33 33 34 33 34 34 33 33 29 28 27 27 26 26 25 23 23 22 22 21 20 19 19 18 18 18 17 16 15 15 15 15 15 15 15 15 15
28 29 30 29 30 31 32 33 33 33 33 34 33 33 30 28 28 28 27 26 26 24 23 22 22 21 20 20 19 18 18 17 17 16 15 14 14 14 14 14 14 14 14 14
30 28 27 30 30 28 29 29 30 31 31 32 31 30 29 28 28 27 26 26 25 24 23 22 21 20 20 19 18 17 17 16 16 15 14 14 13 13 13 13 14 14 14 14
33 31 21 22 25 30 31 29 30 31 31 31 30 29 28 27 26 25 24 24 24 23 22 21 20 20 18 17 16 16 16 15 15 14 13 13 13 12 12 12 13 12 13 13
32 29 28 22 25 29 33 31 30 31 31 29 29 28 27 26 28 29 23 23 22 22 21 20 20 19 17 16 16 15 15 14 13 13 12 12 11 11 12 12 12 12 12 12
29 30 29 30 30 32 29 29 29 30 28 28 28 27 27 28 26 24 23 22 22 21 20 19 19 18 16 15 14 14 14 13 12 11 11 13 12 11 12 12 11 12 12 12
30 29 30 31 30 30 28 29 30 27 27 27 27 26 26 25 23 23 23 22 21 20 19 18 18 17 16 14 13 13 13 11 11 10 10 11 11 10 11 11 11 12 12 12
30 29 30 28 29 26 26 27 25 26 26 26 25 25 25 24 23 23 22 20 20 19 18 18 17 16 15 13 12 12 11 10 10 11 10 10 10 10 10 11 11 11 11 11
27 27 30 27 27 27 26 25 25 26 25 25 25 24 24 24 23 22 21 19 19 18 17 16 16 15 13 11 11 11 10 10 10 10 10 11 10 9 10 11 10 10 10 10
28 27 28 27 26 25 25 25 25 24 24 24 24 23 23 22 21 20 19 18 18 17 16 15 14 12 11 11 11 10 9 9 10 10 11 10 9 9 9 11 9 9 9 9
28 29 30 30 28 28 27 25 24 24 23 23 22 22 21 21 20 19 19 17 16 16 15 14 13 12 11 11 10 9 9 9 9 10 10 9 9 8 9 9 11 9 10 10